Location: Marseilles
(40.7010°N, 83.3930°W)
Time: 14:02:04
(UTC-04:00)

Cosmos 1459 Rocket - Visible Passes

Search period start: 26 July 2016 00:00
Search period end: 05 August 2016 00:00
Orbit: 936 x 1001 km, 83.0° (Epoch: 24 July)

Date Brightness Start Highest point End Pass type
(mag) Time Alt. Az. Time Alt. Az. Time Alt. Az.
26 Jul 5.8 00:22:39 15° E 00:22:39 15° E 00:25:58 10° NE visible
26 Jul 3.9 02:07:10 74° WNW 02:07:10 74° WNW 02:13:12 10° N visible
26 Jul 6.1 03:53:07 10° WNW 03:53:24 10° WNW 03:53:41 10° WNW visible
27 Jul 5.2 00:45:58 27° E 00:45:58 27° E 00:50:40 10° NNE visible
27 Jul 4.6 02:30:29 42° W 02:30:37 42° WNW 02:36:22 10° N visible
28 Jul 4.4 01:09:16 48° ENE 01:09:16 48° ENE 01:14:38 10° NNE visible
28 Jul 5.3 02:53:47 24° W 02:54:18 24° WNW 02:59:09 10° NNW visible
28 Jul 6.1 23:48:02 11° ENE 23:48:02 11° ENE 23:49:29 10° ENE visible
29 Jul 3.9 01:32:34 78° NNE 01:32:34 78° NNE 01:38:14 10° N visible
29 Jul 6.0 03:17:05 13° WNW 03:18:10 14° WNW 03:21:07 10° NW visible
30 Jul 5.5 00:11:19 21° ENE 00:11:19 21° ENE 00:15:14 10° NE visible
30 Jul 4.3 01:55:51 54° WNW 01:55:51 54° WNW 02:01:34 10° N visible
31 Jul 4.8 00:34:36 36° ENE 00:34:36 36° ENE 00:39:29 10° NNE visible
31 Jul 5.1 02:19:07 31° WNW 02:19:12 31° WNW 02:24:33 10° NNW visible
01 Aug 4.1 00:57:52 62° ENE 00:57:52 62° ENE 01:03:14 10° NNE visible
01 Aug 5.7 02:42:23 18° WNW 02:42:59 18° WNW 02:47:01 10° NNW visible
01 Aug 5.7 23:36:36 16° ENE 23:36:36 16° ENE 23:39:32 10° NE visible
02 Aug 4.1 01:21:07 68° NW 01:21:07 68° NW 01:26:41 10° N visible
02 Aug 5.1 23:59:50 28° ENE 23:59:50 28° ENE 00:04:11 10° NNE visible
03 Aug 4.8 01:44:21 40° WNW 01:44:21 40° WNW 01:49:50 10° N visible
04 Aug 4.4 00:23:04 47° ENE 00:23:04 47° ENE 00:28:09 10° NNE visible
04 Aug 5.5 02:07:35 23° WNW 02:07:50 23° WNW 02:12:35 10° NNW visible
04 Aug 6.0 23:01:46 11° ENE 23:01:46 11° ENE 23:03:11 10° ENE visible
